,,,PA_Meas_PMT16A,,PR_Meas_QMR101_102,,RH_Meas_QMH101,,SR_Meas_QMS101,,TA_Meas_QMH101,,GenWind,,GenWind,
date,time,status,PA,status,PR,status,RH,status,SR,status,TA,status,DirAvg,status,SpdAvg,
2012-08-08, 08:28:04,VALID,1007.57,VALID,0,VALID,95.1093,VALID,148.265,VALID,23.3302,VALID,4,VALID,0,
2012-08-08, 08:29:04,VALID,1007.56,VALID,0,VALID,95.0864,VALID,151.036,VALID,23.3532,VALID,4,VALID,0,
2012-08-08, 08:30:04,VALID,1007.61,VALID,0,VALID,95.0711,VALID,153.318,VALID,23.3497,VALID,4,VALID,0,
2012-08-08, 08:31:04,VALID,1007.58,VALID,0,VALID,95.1016,VALID,155.356,VALID,23.3904,VALID,4,VALID,0,
2012-08-08, 08:32:04,VALID,1007.58,VALID,0,VALID,95.094,VALID,157.068,VALID,23.4098,VALID,4,VALID,0,
2012-08-08, 08:33:04,VALID,1007.57,VALID,0,VALID,95.0558,VALID,158.372,VALID,23.3691,VALID,17,VALID,0.472656,
2012-08-08, 08:34:04,VALID,1007.59,VALID,0,VALID,94.9643,VALID,159.757,VALID,23.4116,VALID,17,VALID,0.198828,
2012-08-08, 08:35:04,VALID,1007.59,VALID,0,VALID,94.9033,VALID,161.388,VALID,23.4098,VALID,17,VALID,0,
2012-08-08, 08:36:04,VALID,1007.59,VALID,0,VALID,94.7965,VALID,162.855,VALID,23.3727,VALID,17,VALID,0,
2012-08-08, 08:37:04,VALID,1007.6,VALID,0,VALID,94.7202,VALID,163.996,VALID,23.332,VALID,17,VALID,0,
2012-08-08, 08:38:04,VALID,1007.63,VALID,0,VALID,94.7965,VALID,165.545,VALID,23.4293,VALID,17,VALID,0,
2012-08-08, 08:39:04,VALID,1007.61,VALID,0,VALID,94.8651,VALID,168.479,VALID,23.5266,VALID,17,VALID,0,
2012-08-08, 08:40:04,VALID,1007.62,VALID,0,VALID,94.8728,VALID,172.799,VALID,23.5655,VALID,17,VALID,0,
2012-08-08, 08:41:04,VALID,1007.61,VALID,0,VALID,94.8422,VALID,178.342,VALID,23.585,VALID,17,VALID,0,
2012-08-08, 08:42:04,VALID,1007.61,VALID,0,VALID,94.9185,VALID,184.862,VALID,23.7425,VALID,17,VALID,0,
2012-08-08, 08:43:04,VALID,1007.58,VALID,0,VALID,94.7888,VALID,191.953,VALID,23.7425,VALID,17,VALID,0,
2012-08-08, 08:44:04,VALID,1007.62,VALID,0,VALID,94.7125,VALID,199.126,VALID,23.6416,VALID,17,VALID,0,
2012-08-08, 08:45:04,VALID,1007.58,VALID,0,VALID,94.6591,VALID,207.114,VALID,23.7017,VALID,17,VALID,0,
2012-08-08, 08:46:04,VALID,1007.57,VALID,0,VALID,94.5676,VALID,216.325,VALID,23.7017,VALID,15,VALID,0.0824219,
2012-08-08, 08:47:04,VALID,1007.58,VALID,0,VALID,94.354,VALID,226.921,VALID,23.7017,VALID,11,VALID,0.641797,
2012-08-08, 08:48:04,VALID,1007.56,VALID,0,VALID,94.3616,VALID,237.109,VALID,23.7601,VALID,11,VALID,0.604688,
2012-08-08, 08:49:04,VALID,1007.53,VALID,0,VALID,94.2014,VALID,244.119,VALID,23.7796,VALID,355,VALID,0.246875,
2012-08-08, 08:50:04,VALID,1007.52,VALID,0,VALID,94.0259,VALID,246.891,VALID,23.7796,VALID,355,VALID,0.241016,
2012-08-08, 08:51:04,VALID,1007.51,VALID,0,VALID,93.9725,VALID,246.564,VALID,23.8398,VALID,355,VALID,0.362109,
2012-08-08, 08:52:04,VALID,1007.52,VALID,0,VALID,94.148,VALID,246.075,VALID,23.9548,VALID,349,VALID,0.0988281,
2012-08-08, 08:53:04,VALID,1007.5,VALID,0,VALID,93.6903,VALID,245.994,VALID,23.9353,VALID,282,VALID,0.0820313,
2012-08-08, 08:54:04,VALID,1007.48,VALID,0,VALID,93.5987,VALID,249.01,VALID,23.9159,VALID,308,VALID,0.273438,
2012-08-08, 08:55:04,VALID,1007.49,VALID,0,VALID,93.4309,VALID,256.835,VALID,24.015,VALID,326,VALID,0.141016,
2012-08-08, 08:56:04,VALID,1007.46,VALID,0,VALID,93.2097,VALID,273.055,VALID,24.0521,VALID,288,VALID,0.412891,
2012-08-08, 08:57:04,VALID,1007.45,VALID,0,VALID,92.668,VALID,307.452,VALID,24.0326,VALID,295,VALID,0.750781,
2012-08-08, 08:58:04,VALID,1007.44,VALID,0,VALID,93.3165,VALID,337.854,VALID,24.1105,VALID,295,VALID,0.239063,
2012-08-08, 08:59:04,VALID,1007.48,VALID,0,VALID,93.3622,VALID,391.569,VALID,24.2486,VALID,306,VALID,0.186328,
2012-08-08, 09:00:04,VALID,1007.47,VALID,0,VALID,92.9579,VALID,430.938,VALID,24.3265,VALID,337,VALID,0.555469,
2012-08-08, 09:01:04,VALID,1007.47,VALID,0,VALID,92.3629,VALID,422.787,VALID,24.4238,VALID,290,VALID,0.693359,
2012-08-08, 09:02:04,VALID,1007.48,VALID,0,VALID,92.8816,VALID,416.348,VALID,24.5425,VALID,275,VALID,0.0839844,
2012-08-08, 09:03:04,VALID,1007.51,VALID,0,VALID,92.195,VALID,414.799,VALID,24.5796,VALID,276,VALID,0.364453,
2012-08-08, 09:04:04,VALID,1007.51,VALID,0,VALID,90.8218,VALID,415.695,VALID,24.5796,VALID,285,VALID,0.925391,
2012-08-08, 09:05:04,VALID,1007.5,VALID,0,VALID,90.9134,VALID,423.276,VALID,24.5796,VALID,286,VALID,0.449609,
2012-08-08, 09:06:04,VALID,1007.48,VALID,0,VALID,91.0431,VALID,433.383,VALID,24.7159,VALID,244,VALID,0.515234,
2012-08-08, 09:07:04,VALID,1007.5,VALID,0,VALID,89.9064,VALID,446.506,VALID,24.714,VALID,267,VALID,0.549219,
2012-08-08, 09:08:04,VALID,1007.5,VALID,0,VALID,90.7226,VALID,460.362,VALID,24.8132,VALID,229,VALID,0.623828,
2012-08-08, 09:09:04,VALID,1007.46,VALID,0,VALID,90.4633,VALID,471.937,VALID,25.0255,VALID,242,VALID,0.309766,
2012-08-08, 09:10:04,VALID,1007.42,VALID,0,VALID,87.3583,VALID,479.354,VALID,24.9282,VALID,236,VALID,1.00391,
2012-08-08, 09:11:04,VALID,1007.4,VALID,0,VALID,87.9,VALID,459.792,VALID,24.9866,VALID,227,VALID,1.44297,
2012-08-08, 09:12:04,VALID,1007.41,VALID,0,VALID,90.8295,VALID,412.68,VALID,25.2007,VALID,227,VALID,0.295312,
2012-08-08, 09:13:04,VALID,1007.36,VALID,0,VALID,90.2954,VALID,398.171,VALID,25.3779,VALID,298,VALID,0.145703,
2012-08-08, 09:14:04,VALID,1007.37,VALID,0,VALID,89.975,VALID,382.847,VALID,25.4539,VALID,273,VALID,0.335938,
2012-08-08, 09:15:04,VALID,1007.37,VALID,0,VALID,90.0666,VALID,376.408,VALID,25.6292,VALID,273,VALID,0,
2012-08-08, 09:16:04,VALID,1007.33,VALID,0,VALID,89.8377,VALID,370.947,VALID,25.8259,VALID,267,VALID,0.145703,
2012-08-08, 09:17:04,VALID,1007.31,VALID,0,VALID,88.0754,VALID,368.257,VALID,25.8064,VALID,251,VALID,0.626953,
2012-08-08, 09:18:04,VALID,1007.3,VALID,0,VALID,89.4639,VALID,373.311,VALID,25.9038,VALID,243,VALID,0.254687,
2012-08-08, 09:19:04,VALID,1007.27,VALID,0,VALID,88.3958,VALID,384.233,VALID,25.9797,VALID,313,VALID,0.638281,
2012-08-08, 09:20:04,VALID,1007.23,VALID,0,VALID,87.6787,VALID,384.804,VALID,26.0206,VALID,238,VALID,0.650391,
2012-08-08, 09:21:04,VALID,1007.19,VALID,0,VALID,87.755,VALID,397.682,VALID,26.0401,VALID,277,VALID,0.596094,
2012-08-08, 09:22:04,VALID,1007.2,VALID,0,VALID,86.1148,VALID,416.185,VALID,26.0985,VALID,275,VALID,1.44883,
2012-08-08, 09:23:04,VALID,1007.21,VALID,0,VALID,88.762,VALID,414.962,VALID,26.155,VALID,224,VALID,0.40625,
2012-08-08, 09:24:04,VALID,1007.18,VALID,0,VALID,87.9152,VALID,420.178,VALID,26.2154,VALID,245,VALID,0.474609,
2012-08-08, 09:25:04,VALID,1007.18,VALID,0,VALID,85.6876,VALID,451.804,VALID,26.2349,VALID,243,VALID,0.956641,
2012-08-08, 09:26:04,VALID,1007.15,VALID,0,VALID,84.3983,VALID,657.043,VALID,26.2154,VALID,261,VALID,1.42422,
2012-08-08, 09:27:04,VALID,1007.12,VALID,0,VALID,87.1294,VALID,664.216,VALID,26.2933,VALID,239,VALID,0.707812,
2012-08-08, 09:28:04,VALID,1007.09,VALID,0,VALID,85.6342,VALID,589.228,VALID,26.4297,VALID,236,VALID,0.963281,
2012-08-08, 09:29:04,VALID,1007.08,VALID,0,VALID,82.308,VALID,537.633,VALID,26.5466,VALID,234,VALID,1.375,
2012-08-08, 09:30:04,VALID,1007.09,VALID,0,VALID,81.0645,VALID,524.591,VALID,26.5486,VALID,236,VALID,1.54453,
2012-08-08, 09:31:05,VALID,1007.06,VALID,0,VALID,82.6437,VALID,543.99,VALID,26.5466,VALID,223,VALID,1.30938,
2012-08-08, 09:32:05,VALID,1007.04,VALID,0,VALID,83.8414,VALID,513.18,VALID,26.5681,VALID,238,VALID,1.25234,
2012-08-08, 09:33:05,VALID,1007.05,VALID,0,VALID,84.2152,VALID,475.115,VALID,26.7434,VALID,278,VALID,0.969922,
2012-08-08, 09:34:05,VALID,1007,VALID,0,VALID,82.7657,VALID,445.935,VALID,26.8214,VALID,296,VALID,0.857031,
2012-08-08, 09:35:05,VALID,1007.02,VALID,0,VALID,83.048,VALID,439.578,VALID,26.8993,VALID,215,VALID,1.12422,
2012-08-08, 09:36:05,VALID,1007.01,VALID,0,VALID,79.0505,VALID,392.139,VALID,26.9188,VALID,222,VALID,1.48359,
2012-08-08, 09:37:05,VALID,1006.98,VALID,0,VALID,83.0632,VALID,385.13,VALID,26.7824,VALID,257,VALID,0.542188,
2012-08-08, 09:38:05,VALID,1006.95,VALID,0,VALID,84.2762,VALID,390.265,VALID,26.7629,VALID,236,VALID,0.592578,
2012-08-08, 09:39:05,VALID,1006.95,VALID,0,VALID,84.589,VALID,385.782,VALID,26.8798,VALID,259,VALID,0.555078,
2012-08-08, 09:40:05,VALID,1006.91,VALID,0,VALID,83.6354,VALID,394.666,VALID,26.9557,VALID,277,VALID,0.61875,
2012-08-08, 09:41:05,VALID,1006.89,VALID,0,VALID,80.622,VALID,406.892,VALID,26.9947,VALID,240,VALID,0.719922,
2012-08-08, 09:42:05,VALID,1006.88,VALID,0,VALID,81.896,VALID,389.776,VALID,27.0726,VALID,257,VALID,1.06367,
2012-08-08, 09:43:05,VALID,1006.88,VALID,0,VALID,79.7523,VALID,398.823,VALID,27.0726,VALID,289,VALID,2.28242,
2012-08-08, 09:44:05,VALID,1006.85,VALID,0,VALID,80.8738,VALID,441.289,VALID,27.0142,VALID,294,VALID,1.8418,
2012-08-08, 09:45:05,VALID,1006.85,VALID,0,VALID,84.0016,VALID,416.511,VALID,27.0142,VALID,166,VALID,0.549609,
2012-08-08, 09:46:05,VALID,1006.83,VALID,0,VALID,79.7294,VALID,410.316,VALID,27.0142,VALID,278,VALID,1.3957,
2012-08-08, 09:47:05,VALID,1006.82,VALID,0,VALID,81.2781,VALID,424.091,VALID,26.9732,VALID,282,VALID,1.50625,
2012-08-08, 09:48:05,VALID,1006.82,VALID,0,VALID,83.3379,VALID,434.198,VALID,27.1311,VALID,206,VALID,0.587891,
2012-08-08, 09:49:05,VALID,1006.82,VALID,0,VALID,81.3544,VALID,441.208,VALID,27.17,VALID,279,VALID,1.34531,
2012-08-08, 09:50:05,VALID,1006.79,VALID,0,VALID,81.5451,VALID,450.418,VALID,27.1895,VALID,307,VALID,0.752344,
2012-08-08, 09:51:05,VALID,1006.81,VALID,0,VALID,80.2787,VALID,453.027,VALID,27.248,VALID,279,VALID,1.80938,
2012-08-08, 09:52:05,VALID,1006.84,VALID,0,VALID,79.9812,VALID,454.168,VALID,27.289,VALID,280,VALID,1.6543,
2012-08-08, 09:53:05,VALID,1006.81,VALID,0,VALID,79.5235,VALID,458.08,VALID,27.248,VALID,276,VALID,1.84453,
2012-08-08, 09:54:05,VALID,1006.78,VALID,0,VALID,78.4783,VALID,473.159,VALID,27.1116,VALID,288,VALID,1.88633,
2012-08-08, 09:55:05,VALID,1006.81,VALID,0,VALID,80.9272,VALID,484.978,VALID,26.9967,VALID,329,VALID,1.21992,
2012-08-08, 09:56:05,VALID,1006.82,VALID,0,VALID,82.0639,VALID,495.656,VALID,26.9557,VALID,259,VALID,0.823828,
2012-08-08, 09:57:05,VALID,1006.81,VALID,0,VALID,80.6678,VALID,505.437,VALID,27.0357,VALID,308,VALID,2.03906,
2012-08-08, 09:58:05,VALID,1006.8,VALID,0,VALID,83.5744,VALID,509.92,VALID,27.1136,VALID,245,VALID,0.525391,
2012-08-08, 09:59:05,VALID,1006.83,VALID,0,VALID,77.8298,VALID,492.395,VALID,27.1916,VALID,282,VALID,2.36758,
2012-08-08, 10:00:05,VALID,1006.82,VALID,0,VALID,80.2635,VALID,460.444,VALID,27.1331,VALID,288,VALID,0.819531,
2012-08-08, 10:01:05,VALID,1006.83,VALID,0,VALID,78.3944,VALID,456.287,VALID,27.1331,VALID,281,VALID,2.27344,
2012-08-08, 10:02:05,VALID,1006.87,VALID,0,VALID,78.5012,VALID,447.076,VALID,27.1526,VALID,299,VALID,1.35352,
2012-08-08, 10:03:05,VALID,1006.88,VALID,0,VALID,78.0129,VALID,461.177,VALID,27.1136,VALID,288,VALID,1.46094,
2012-08-08, 10:04:05,VALID,1006.87,VALID,0,VALID,79.6226,VALID,449.848,VALID,27.1136,VALID,286,VALID,1.50977,
2012-08-08, 10:05:05,VALID,1006.87,VALID,0,VALID,81.8579,VALID,453.027,VALID,27.25,VALID,276,VALID,0.485156,
2012-08-08, 10:06:05,VALID,1006.89,VALID,0,VALID,82.3995,VALID,457.102,VALID,27.4839,VALID,158,VALID,0.247656,
2012-08-08, 10:07:05,VALID,1006.87,VALID,0,VALID,76.7694,VALID,430.367,VALID,27.5618,VALID,228,VALID,2.07031,
2012-08-08, 10:08:05,VALID,1006.9,VALID,0,VALID,79.6303,VALID,417.489,VALID,27.5424,VALID,241,VALID,1.15586,
2012-08-08, 10:09:05,VALID,1006.93,VALID,0,VALID,79.4929,VALID,403.551,VALID,27.5424,VALID,295,VALID,0.776172,
2012-08-08, 10:10:05,VALID,1006.92,VALID,0,VALID,79.8133,VALID,396.459,VALID,27.6593,VALID,268,VALID,0.6875,
2012-08-08, 10:11:05,VALID,1006.94,VALID,0,VALID,76.4719,VALID,387.33,VALID,27.6203,VALID,288,VALID,1.77227,
2012-08-08, 10:12:05,VALID,1006.94,VALID,0,VALID,78.8826,VALID,382.521,VALID,27.5034,VALID,282,VALID,1.09414,
2012-08-08, 10:13:05,VALID,1006.93,VALID,0,VALID,76.1744,VALID,381.462,VALID,27.3865,VALID,275,VALID,2.28203,
2012-08-08, 10:14:05,VALID,1006.92,VALID,0,VALID,78.2418,VALID,380.565,VALID,27.2716,VALID,289,VALID,2.05195,
2012-08-08, 10:15:05,VALID,1006.91,VALID,0,VALID,80.8432,VALID,381.136,VALID,27.2306,VALID,274,VALID,1.00273,
2012-08-08, 10:16:05,VALID,1006.93,VALID,0,VALID,79.7599,VALID,383.255,VALID,27.289,VALID,251,VALID,1.00469,
2012-08-08, 10:17:05,VALID,1006.9,VALID,0,VALID,75.4039,VALID,387.33,VALID,27.289,VALID,241,VALID,1.81562,
2012-08-08, 10:18:05,VALID,1006.95,VALID,0,VALID,78.3715,VALID,391.813,VALID,27.369,VALID,226,VALID,0.479297,
2012-08-08, 10:19:05,VALID,1006.94,VALID,0,VALID,77.0364,VALID,395.237,VALID,27.367,VALID,146,VALID,0.623828,
2012-08-08, 10:20:05,VALID,1006.94,VALID,0,VALID,77.3187,VALID,398.09,VALID,27.4059,VALID,250,VALID,2.26055,
2012-08-08, 10:21:05,VALID,1006.96,VALID,0,VALID,77.6467,VALID,404.529,VALID,27.4254,VALID,250,VALID,1.31367,
2012-08-08, 10:22:05,VALID,1006.95,VALID,0,VALID,76.327,VALID,414.147,VALID,27.4839,VALID,263,VALID,0.812109,
2012-08-08, 10:23:05,VALID,1006.96,VALID,0,VALID,75.2742,VALID,433.301,VALID,27.5639,VALID,268,VALID,0.825,
2012-08-08, 10:24:05,VALID,1006.94,VALID,0,VALID,76.1744,VALID,465.171,VALID,27.5618,VALID,302,VALID,0.647656,
2012-08-08, 10:25:05,VALID,1006.95,VALID,0,VALID,77.3263,VALID,495.819,VALID,27.7199,VALID,255,VALID,0.661719,
2012-08-08, 10:26:05,VALID,1006.93,VALID,0,VALID,76.3727,VALID,522.635,VALID,27.7178,VALID,280,VALID,1.42109,
2012-08-08, 10:27:05,VALID,1006.93,VALID,0,VALID,76.3346,VALID,532.742,VALID,27.7978,VALID,301,VALID,0.563672,
2012-08-08, 10:28:05,VALID,1006.93,VALID,0,VALID,77.5628,VALID,528.83,VALID,27.8542,VALID,353,VALID,0.644531,
2012-08-08, 10:29:05,VALID,1006.96,VALID,0,VALID,73.9162,VALID,527.444,VALID,27.9321,VALID,232,VALID,0.997266,
2012-08-08, 10:30:05,VALID,1006.96,VALID,0,VALID,76.0294,VALID,537.388,VALID,28.0101,VALID,324,VALID,0.860937,
2012-08-08, 10:31:05,VALID,1006.94,VALID,0,VALID,72.7948,VALID,574.964,VALID,28.0686,VALID,273,VALID,1.52813,
2012-08-08, 10:32:05,VALID,1006.96,VALID,0,VALID,74.5265,VALID,629.493,VALID,28.1076,VALID,271,VALID,1.63906,
2012-08-08, 10:33:05,VALID,1006.93,VALID,0,VALID,76.449,VALID,652.071,VALID,28.2029,VALID,270,VALID,0.465234,
2012-08-08, 10:34:05,VALID,1006.94,VALID,0,VALID,74.5113,VALID,610.013,VALID,28.3025,VALID,238,VALID,0.95625,
2012-08-08, 10:35:05,VALID,1006.93,VALID,0,VALID,75.3504,VALID,640.742,VALID,28.4021,VALID,267,VALID,1.05898,
2012-08-08, 10:36:05,VALID,1006.93,VALID,0,VALID,75.03,VALID,524.428,VALID,28.4194,VALID,264,VALID,0.68125,
2012-08-08, 10:37:05,VALID,1006.91,VALID,0,VALID,74.6562,VALID,414.88,VALID,28.4801,VALID,232,VALID,1.01563,
2012-08-08, 10:38:05,VALID,1006.91,VALID,0,VALID,71.3605,VALID,357.335,VALID,28.4216,VALID,244,VALID,1.40078,
2012-08-08, 10:39:05,VALID,1006.9,VALID,0,VALID,71.9098,VALID,306.392,VALID,28.4021,VALID,245,VALID,1.68867,
2012-08-08, 10:40:05,VALID,1006.89,VALID,0,VALID,71.9556,VALID,279.494,VALID,28.1487,VALID,212,VALID,1.79062,
2012-08-08, 10:41:05,VALID,1006.86,VALID,0,VALID,75.1521,VALID,268.49,VALID,27.8173,VALID,239,VALID,2.63672,
2012-08-08, 10:42:05,VALID,1006.86,VALID,0,VALID,75.9074,VALID,265.964,VALID,27.5639,VALID,236,VALID,1.3625,
2012-08-08, 10:43:05,VALID,1006.84,VALID,0,VALID,77.7459,VALID,279.576,VALID,27.3844,VALID,249,VALID,1.11484,
2012-08-08, 10:44:05,VALID,1006.84,VALID,0,VALID,78.341,VALID,294.573,VALID,27.3844,VALID,249,VALID,0.823438,
2012-08-08, 10:45:05,VALID,1006.82,VALID,0,VALID,76.1744,VALID,289.846,VALID,27.3259,VALID,237,VALID,1.29219,
2012-08-08, 10:46:05,VALID,1006.83,VALID,0,VALID,77.6162,VALID,301.338,VALID,27.2869,VALID,238,VALID,1.0543,
2012-08-08, 10:47:05,VALID,1006.79,VALID,0,VALID,78.2418,VALID,316.255,VALID,27.3259,VALID,179,VALID,1.18477,
2012-08-08, 10:48:05,VALID,1006.79,VALID,0,VALID,77.189,VALID,334.187,VALID,27.4623,VALID,278,VALID,0.826953,
2012-08-08, 10:49:05,VALID,1006.75,VALID,0,VALID,74.6028,VALID,354.075,VALID,27.5792,VALID,283,VALID,1.55586,
2012-08-08, 10:50:05,VALID,1006.78,VALID,0,VALID,75.5793,VALID,378.935,VALID,27.5792,VALID,297,VALID,1.00625,
2012-08-08, 10:51:05,VALID,1006.75,VALID,0,VALID,76.8762,VALID,411.294,VALID,27.5987,VALID,279,VALID,2.00703,
2012-08-08, 10:52:05,VALID,1006.76,VALID,0,VALID,75.9608,VALID,452.537,VALID,27.6377,VALID,281,VALID,1.59766,
2012-08-08, 10:53:05,VALID,1006.79,VALID,0,VALID,75.503,VALID,450.5,VALID,27.6377,VALID,295,VALID,0.619141,
2012-08-08, 10:54:05,VALID,1006.76,VALID,0,VALID,78.3181,VALID,455.635,VALID,27.7372,VALID,291,VALID,0.569922,
2012-08-08, 10:55:05,VALID,1006.72,VALID,0,VALID,76.5711,VALID,466.068,VALID,27.6983,VALID,227,VALID,0.775,
2012-08-08, 10:56:05,VALID,1006.75,VALID,0,VALID,76.9525,VALID,456.205,VALID,27.7936,VALID,264,VALID,1.19492,
2012-08-08, 10:57:05,VALID,1006.72,VALID,0,VALID,76.3498,VALID,433.22,VALID,27.8131,VALID,235,VALID,1.38984,
2012-08-08, 10:58:05,VALID,1006.72,VALID,0,VALID,74.2519,VALID,406.648,VALID,27.8326,VALID,277,VALID,1.01641,
2012-08-08, 10:59:05,VALID,1006.68,VALID,0,VALID,75.4115,VALID,388.553,VALID,27.8521,VALID,271,VALID,1.02109,
2012-08-08, 11:00:05,VALID,1006.69,VALID,0,VALID,75.3581,VALID,378.364,VALID,27.7936,VALID,243,VALID,0.813672,
2012-08-08, 11:01:05,VALID,1006.69,VALID,0,VALID,77.8604,VALID,375.349,VALID,27.8131,VALID,222,VALID,0.569922,
2012-08-08, 11:02:05,VALID,1006.7,VALID,0,VALID,75.5793,VALID,378.772,VALID,27.8131,VALID,276,VALID,1.31641,
2012-08-08, 11:03:05,VALID,1006.66,VALID,0,VALID,75.8387,VALID,387.819,VALID,27.8911,VALID,302,VALID,0.43125,
2012-08-08, 11:04:05,VALID,1006.67,VALID,0,VALID,76.037,VALID,396.133,VALID,28.0686,VALID,250,VALID,0.542188,
2012-08-08, 11:05:05,VALID,1006.63,VALID,0,VALID,75.3733,VALID,404.284,VALID,28.1271,VALID,231,VALID,1.21875,
2012-08-08, 11:06:05,VALID,1006.65,VALID,0,VALID,72.7871,VALID,425.803,VALID,28.1834,VALID,291,VALID,1.28125,
2012-08-08, 11:07:05,VALID,1006.64,VALID,0,VALID,74.7249,VALID,489.869,VALID,28.205,VALID,220,VALID,0.675781,
2012-08-08, 11:08:05,VALID,1006.61,VALID,0,VALID,71.8793,VALID,475.441,VALID,28.2614,VALID,256,VALID,0.944531,
2012-08-08, 11:09:05,VALID,1006.58,VALID,0,VALID,73.4814,VALID,481.473,VALID,28.2224,VALID,209,VALID,1.44922,
2012-08-08, 11:10:05,VALID,1006.6,VALID,0,VALID,75.4191,VALID,464.845,VALID,28.1639,VALID,265,VALID,0.627344,
2012-08-08, 11:11:05,VALID,1006.57,VALID,0,VALID,72.6651,VALID,450.5,VALID,28.2029,VALID,263,VALID,1.48789,
2012-08-08, 11:12:05,VALID,1006.52,VALID,0,VALID,73.634,VALID,432.16,VALID,28.1834,VALID,266,VALID,1.71758,
2012-08-08, 11:13:05,VALID,1006.56,VALID,0,VALID,72.9016,VALID,435.665,VALID,28.1855,VALID,283,VALID,1.92539,
2012-08-08, 11:14:05,VALID,1006.51,VALID,0,VALID,71.0401,VALID,461.911,VALID,28.2419,VALID,269,VALID,2.24883,
2012-08-08, 11:15:05,VALID,1006.5,VALID,0,VALID,69.8882,VALID,487.26,VALID,28.2419,VALID,294,VALID,2.75742,
2012-08-08, 11:16:05,VALID,1006.53,VALID,0,VALID,71.3834,VALID,500.872,VALID,28.205,VALID,285,VALID,1.02695,
2012-08-08, 11:17:05,VALID,1006.48,VALID,0,VALID,72.0929,VALID,508.29,VALID,28.3003,VALID,267,VALID,0.420312,
2012-08-08, 11:18:05,VALID,1006.49,VALID,0,VALID,69.7432,VALID,511.794,VALID,28.4368,VALID,264,VALID,1.03281,
2012-08-08, 11:19:05,VALID,1006.46,VALID,0,VALID,69.9263,VALID,532.09,VALID,28.5559,VALID,252,VALID,1.39141,
2012-08-08, 11:20:05,VALID,1006.41,VALID,0,VALID,70.2772,VALID,558.092,VALID,28.5949,VALID,320,VALID,0.766797,
2012-08-08, 11:21:05,VALID,1006.46,VALID,0,VALID,67.9581,VALID,579.528,VALID,28.6707,VALID,235,VALID,1.47852,
2012-08-08, 11:22:05,VALID,1006.44,VALID,0,VALID,67.836,VALID,591.347,VALID,28.7509,VALID,282,VALID,1.18945,
2012-08-08, 11:23:05,VALID,1006.41,VALID,0,VALID,70.3078,VALID,591.184,VALID,28.8483,VALID,283,VALID,0.437891,
2012-08-08, 11:24:05,VALID,1006.38,VALID,0,VALID,68.8583,VALID,582.789,VALID,28.9653,VALID,240,VALID,1.49492,
2012-08-08, 11:25:05,VALID,1006.38,VALID,0,VALID,67.5843,VALID,572.111,VALID,28.9848,VALID,212,VALID,0.667188,
2012-08-08, 11:26:05,VALID,1006.36,VALID,0,VALID,66.0814,VALID,562.656,VALID,29.0411,VALID,287,VALID,1.41484,
2012-08-08, 11:27:05,VALID,1006.36,VALID,0,VALID,66.5238,VALID,552.467,VALID,29.0433,VALID,302,VALID,1.15703,
2012-08-08, 11:28:05,VALID,1006.33,VALID,0,VALID,67.8436,VALID,542.849,VALID,29.0433,VALID,264,VALID,1.5082,
2012-08-08, 11:29:05,VALID,1006.34,VALID,0,VALID,68.2174,VALID,536.981,VALID,29.0433,VALID,343,VALID,0.950781,
2012-08-08, 11:30:05,VALID,1006.33,VALID,0,VALID,66.8824,VALID,532.172,VALID,28.9263,VALID,280,VALID,1.6957,
2012-08-08, 11:31:05,VALID,1006.33,VALID,0,VALID,66.9511,VALID,525.569,VALID,28.8678,VALID,256,VALID,1.12812,
2012-08-08, 11:32:05,VALID,1006.3,VALID,0,VALID,69.2626,VALID,519.456,VALID,28.8483,VALID,225,VALID,0.730078,
2012-08-08, 11:33:05,VALID,1006.28,VALID,0,VALID,69.9111,VALID,514.566,VALID,29.0043,VALID,284,VALID,0.998047,
2012-08-08, 11:34:05,VALID,1006.28,VALID,0,VALID,67.0273,VALID,512.61,VALID,29.1018,VALID,221,VALID,1.4625,
2012-08-08, 11:35:05,VALID,1006.26,VALID,0,VALID,65.3566,VALID,509.349,VALID,29.0043,VALID,299,VALID,1.19844,
2012-08-08, 11:36:05,VALID,1006.23,VALID,0,VALID,65.555,VALID,511.224,VALID,28.7314,VALID,283,VALID,2.35,
2012-08-08, 11:37:05,VALID,1006.23,VALID,0,VALID,68.8659,VALID,510.49,VALID,28.5364,VALID,228,VALID,0.907031,
2012-08-08, 11:38:05,VALID,1006.22,VALID,0,VALID,68.2327,VALID,507.719,VALID,28.5581,VALID,304,VALID,1.17148,
2012-08-08, 11:39:05,VALID,1006.23,VALID,0,VALID,68.1564,VALID,497.693,VALID,28.6144,VALID,295,VALID,1.34805,
2012-08-08, 11:40:05,VALID,1006.24,VALID,0,VALID,68.8354,VALID,486.527,VALID,28.6729,VALID,295,VALID,0.969531,
2012-08-08, 11:41:05,VALID,1006.21,VALID,0,VALID,69.728,VALID,478.05,VALID,28.831,VALID,51,VALID,0.651172,
2012-08-08, 11:42:05,VALID,1006.19,VALID,0,VALID,66.1729,VALID,474.626,VALID,28.9458,VALID,258,VALID,0.708203,
2012-08-08, 11:43:05,VALID,1006.19,VALID,0,VALID,67.6529,VALID,475.197,VALID,29.0043,VALID,299,VALID,1.05156,
2012-08-08, 11:44:05,VALID,1006.17,VALID,0,VALID,66.7908,VALID,479.272,VALID,29.1018,VALID,220,VALID,0.411719,
2012-08-08, 11:45:05,VALID,1006.16,VALID,0,VALID,64.6777,VALID,481.555,VALID,29.1603,VALID,281,VALID,1.63906,
2012-08-08, 11:46:05,VALID,1006.14,VALID,0,VALID,66.7146,VALID,486.69,VALID,29.0823,VALID,246,VALID,1.13555,
2012-08-08, 11:47:05,VALID,1006.12,VALID,0,VALID,65.6007,VALID,495.9,VALID,29.0238,VALID,283,VALID,1.61523,
2012-08-08, 11:48:05,VALID,1006.09,VALID,0,VALID,67.5995,VALID,501.035,VALID,28.8678,VALID,266,VALID,1.11328,
2012-08-08, 11:49:05,VALID,1006.08,VALID,0,VALID,65.9746,VALID,506.415,VALID,28.7682,VALID,279,VALID,2.08516,
2012-08-08, 11:50:05,VALID,1006.04,VALID,0,VALID,67.2333,VALID,513.099,VALID,28.7097,VALID,284,VALID,1.24063,
2012-08-08, 11:51:05,VALID,1006,VALID,0,VALID,67.3859,VALID,515.87,VALID,28.6902,VALID,288,VALID,1.81797,
2012-08-08, 11:52:05,VALID,1005.96,VALID,0,VALID,66.5315,VALID,514.24,VALID,28.7292,VALID,223,VALID,1.04922,
2012-08-08, 11:53:05,VALID,1005.95,VALID,0,VALID,66.9587,VALID,518.886,VALID,28.7487,VALID,286,VALID,1.8457,
2012-08-08, 11:54:05,VALID,1005.93,VALID,0,VALID,66.4399,VALID,537.062,VALID,28.7877,VALID,308,VALID,0.964063,
2012-08-08, 11:55:05,VALID,1005.89,VALID,0,VALID,68.8812,VALID,545.295,VALID,28.9046,VALID,325,VALID,0.709375,
2012-08-08, 11:56:05,VALID,1005.87,VALID,0,VALID,65.288,VALID,545.295,VALID,29.0021,VALID,283,VALID,2.21758,
2012-08-08, 11:57:05,VALID,1005.82,VALID,0,VALID,67.9733,VALID,542.36,VALID,29.0021,VALID,285,VALID,0.795703,
2012-08-08, 11:58:05,VALID,1005.83,VALID,0,VALID,66.5849,VALID,564.449,VALID,29.1408,VALID,270,VALID,1.35781,
2012-08-08, 11:59:05,VALID,1005.81,VALID,0,VALID,65.6999,VALID,534.372,VALID,29.2578,VALID,265,VALID,0.975391,
2012-08-08, 12:00:05,VALID,1005.82,VALID,0,VALID,64.9523,VALID,522.635,VALID,29.3358,VALID,259,VALID,0.403125,
2012-08-08, 12:01:05,VALID,1005.8,VALID,0,VALID,63.7088,VALID,506.333,VALID,29.3553,VALID,304,VALID,1.0668,
2012-08-08, 12:02:05,VALID,1005.77,VALID,0,VALID,65.2727,VALID,491.825,VALID,29.3358,VALID,230,VALID,1.26445,